period_start,C,m1,H,J0,J1,J2,J3,J4,J5,JA,JB,JC,JD,JJ,JK,JN,#
2017-04-09 00:00:17,0.46,8.96,0.00,20.95,24.77,28.44,14.70,49.14,1019.06,2034.24,1407.66,1536.61,1758.25,600.13,601.81,54.61,0000 0000 0000 0000 000000
2017-04-09 00:05:18,0.16,8.97,0.00,20.91,24.75,28.36,14.64,49.08,1019.06,2034.35,1406.44,1535.95,1757.15,599.96,601.73,54.66,0000 0000 0000 0000 000000
2017-04-09 00:10:20,0.20,8.98,0.00,20.94,24.74,28.37,14.69,49.15,1019.06,2034.81,1405.68,1535.16,1756.75,599.75,601.41,54.71,0000 0000 0000 0000 000000
2017-04-09 00:15:21,0.13,8.99,0.00,20.97,24.72,28.38,14.64,49.17,1019.06,2034.96,1404.72,1534.84,1755.87,600.06,601.49,54.77,0000 0000 0000 0000 000000
2017-04-09 00:20:22,0.43,9.00,0.00,20.90,24.71,28.33,14.72,49.27,1019.06,2034.95,1402.49,1533.20,1754.01,600.25,602.01,54.82,0000 0000 0000 0000 000000
2017-04-09 00:25:23,0.53,9.03,0.00,20.89,24.69,28.38,14.71,49.25,1019.06,2034.98,1399.34,1530.74,1751.30,599.94,601.70,54.87,0000 0000 0000 0000 000000
2017-04-09 00:30:25,0.34,9.05,0.00,20.91,24.67,28.39,14.65,49.22,1019.07,2034.98,1396.98,1528.95,1749.39,599.92,601.72,54.92,0000 0000 0000 0000 000000
2017-04-09 00:35:26,0.23,9.06,0.00,20.90,24.65,28.35,14.68,49.27,1019.07,2034.99,1395.19,1527.80,1747.95,600.08,601.69,54.97,0000 0000 0000 0000 000000
2017-04-09 00:40:27,0.18,9.07,0.00,20.88,24.63,28.36,14.66,49.22,1019.07,2034.99,1393.86,1526.93,1746.98,600.16,602.01,55.02,0000 0000 0000 0000 000000
2017-04-09 00:45:29,0.26,9.08,0.00,20.85,24.61,28.36,14.70,49.22,1019.09,2034.99,1392.52,1525.84,1745.80,600.09,601.95,55.07,0000 0000 0000 0000 000000
2017-04-09 00:50:30,0.31,9.10,0.00,20.87,24.60,28.31,14.76,49.35,1019.17,2034.99,1390.58,1524.51,1744.32,600.14,601.99,55.12,0000 0000 0000 0000 000000
2017-04-09 00:55:31,0.82,9.12,0.00,20.86,24.57,28.33,14.75,49.29,1019.16,2034.99,1386.41,1521.44,1740.89,600.23,602.02,55.17,0000 0000 0000 0000 000000
2017-04-09 01:00:32,1.59,9.20,0.00,20.83,24.55,28.26,14.67,49.11,1019.21,2035.00,1377.32,1514.94,1733.60,600.12,602.18,55.22,0000 0000 0000 0000 000000
2017-04-09 01:05:33,1.37,9.27,0.00,20.82,24.54,28.21,14.70,49.27,1019.20,2035.02,1367.80,1508.40,1726.45,600.16,602.09,55.27,0000 0000 0000 0000 000000
2017-04-09 01:10:34,0.93,9.33,0.00,20.82,24.52,28.21,14.69,49.33,1019.15,2035.04,1361.32,1504.07,1721.63,600.02,602.00,55.32,0000 0000 0000 0000 000000
2017-04-09 01:15:35,0.51,9.36,0.00,20.80,24.50,28.24,14.66,49.30,1019.20,2035.05,1357.47,1501.37,1718.82,600.04,602.04,55.37,0000 0000 0000 0000 000000
2017-04-09 01:20:37,1.10,9.40,0.00,20.78,24.49,28.12,14.68,49.32,1019.24,2035.06,1351.88,1497.69,1714.54,600.05,602.12,55.42,0000 0000 0000 0000 000000
2017-04-09 01:25:38,1.38,9.47,0.00,20.77,24.47,28.12,14.62,49.29,1019.19,2035.36,1343.45,1491.98,1708.12,599.79,601.91,55.47,0000 0000 0000 0000 000000
2017-04-09 01:30:39,1.10,9.53,0.77,20.75,24.45,28.06,14.71,49.42,1019.32,2035.60,1336.73,1487.37,1702.92,600.02,602.22,55.52,0000 0000 0000 0000 000000
2017-04-09 01:35:40,0.65,9.57,1.00,20.75,24.44,28.08,14.72,49.37,1019.47,2035.76,1332.06,1484.18,1699.37,600.04,602.30,55.57,0000 0000 0000 0000 000000
2017-04-09 01:40:41,0.41,9.60,1.00,20.74,24.42,28.05,14.75,49.36,1019.46,2035.90,1329.34,1482.35,1697.32,599.96,602.17,55.62,0000 0000 0000 0000 000000
2017-04-09 01:45:43,0.43,9.62,1.00,20.71,24.40,28.04,14.68,49.35,1019.41,2035.97,1326.98,1480.77,1695.64,599.98,602.35,55.68,0000 0000 0000 0000 000000
2017-04-09 01:50:44,0.27,9.63,1.00,20.66,24.38,28.00,14.72,49.45,1019.40,2035.99,1324.99,1479.59,1694.08,599.93,602.33,55.73,0000 0000 0000 0000 000000
2017-04-09 01:55:45,0.53,9.66,1.00,20.65,24.36,27.98,14.73,49.38,1019.49,2035.99,1322.02,1477.59,1691.92,599.83,602.47,55.78,0000 0000 0000 0000 000000
2017-04-09 02:00:47,0.65,9.69,1.00,20.65,24.34,27.96,14.76,49.33,1019.54,2035.99,1318.27,1475.15,1689.14,600.43,603.17,55.83,0000 0000 0000 0000 000000
2017-04-09 02:05:48,0.36,9.72,1.00,20.63,24.32,27.90,14.67,49.27,1019.54,2036.00,1315.32,1473.25,1687.15,599.85,602.35,55.88,0000 0000 0000 0000 000000
2017-04-09 02:10:49,0.11,9.72,1.00,20.64,24.30,27.92,14.71,49.39,1019.54,2036.01,1314.44,1472.97,1686.37,600.16,602.74,55.93,0000 0000 0000 0000 000000
2017-04-09 02:15:50,0.08,9.73,1.00,20.67,24.28,27.92,14.66,49.28,1019.55,2036.05,1313.98,1472.45,1686.00,599.84,602.43,55.98,0000 0000 0000 0000 000000
2017-04-09 02:20:52,0.10,9.73,1.00,20.67,24.27,27.93,14.68,49.36,1019.55,2036.07,1313.20,1472.02,1685.88,599.71,602.13,56.03,0000 0000 0000 0000 000000
2017-04-09 02:25:53,0.09,9.74,1.00,20.65,24.25,27.96,14.73,49.41,1019.55,2036.29,1312.80,1471.98,1685.15,599.96,602.56,56.08,0000 0000 0000 0000 000000
2017-04-09 02:30:55,0.14,9.75,0.17,20.56,24.24,28.01,14.71,49.44,1019.55,2036.44,1312.04,1471.45,1684.97,600.04,602.60,56.13,0000 0000 0000 0000 000000
2017-04-09 02:35:56,0.14,9.75,0.00,20.56,24.22,28.05,14.67,49.43,1019.55,2036.63,1311.62,1471.01,1684.22,600.16,602.81,56.18,0000 0000 0000 0000 000000
2017-04-09 02:40:58,0.06,9.76,0.00,20.58,24.21,27.94,14.77,49.42,1019.55,2036.92,1310.98,1470.98,1683.99,600.48,603.18,56.23,0000 0000 0000 0000 000000
2017-04-09 02:45:59,0.17,9.76,0.00,20.58,24.20,27.92,14.70,49.42,1019.55,2036.97,1310.15,1470.37,1683.41,600.01,602.67,56.28,0000 0000 0000 0000 000000
2017-04-09 02:51:01,0.03,9.77,0.00,20.56,24.18,27.93,14.63,49.43,1019.55,2036.97,1309.84,1470.00,1683.01,599.97,602.63,56.33,0000 0000 0000 0000 000000
2017-04-09 02:56:02,0.23,9.78,0.00,20.54,24.17,27.94,14.71,49.37,1019.55,2036.96,1308.64,1469.45,1682.34,599.87,602.60,56.38,0000 0000 0000 0000 000000
2017-04-09 03:01:04,0.26,9.79,0.00,20.61,24.15,27.93,14.73,49.38,1019.55,2036.99,1307.08,1468.50,1681.23,599.99,602.69,56.43,0000 0000 0000 0000 000000
2017-04-09 03:06:05,0.62,9.81,0.00,20.65,24.15,27.98,14.69,49.42,1019.55,2036.99,1303.55,1466.35,1678.77,599.88,602.47,56.48,0000 0000 0000 0000 000000
2017-04-09 03:11:06,0.25,9.84,0.00,20.61,24.14,28.05,14.71,49.58,1019.57,2036.99,1301.13,1464.97,1677.08,600.05,602.71,56.54,0000 0000 0000 0000 000000
2017-04-09 03:16:08,0.21,9.85,0.00,20.66,24.12,28.13,14.76,49.52,1019.58,2036.99,1300.01,1464.10,1676.25,599.92,602.61,56.59,0000 0000 0000 0000 000000
2017-04-09 03:21:09,0.10,9.85,0.00,20.72,24.12,28.14,14.74,49.61,1019.58,2036.99,1299.05,1463.81,1675.81,599.95,602.37,56.64,0000 0000 0000 0000 000000
2017-04-09 03:26:10,0.15,9.86,0.00,20.75,24.12,28.16,14.79,49.66,1019.60,2036.99,1298.48,1463.07,1675.09,600.19,602.47,56.69,0000 0000 0000 0000 000000
2017-04-09 03:31:12,0.19,9.87,0.00,20.75,24.12,28.19,14.70,49.62,1019.71,2036.99,1297.44,1462.49,1674.33,600.12,602.58,56.74,0000 0000 0000 0000 000000
2017-04-09 03:36:13,0.26,9.88,0.00,20.77,24.11,28.22,14.67,49.45,1019.93,2036.99,1295.83,1461.48,1673.14,600.07,602.58,56.79,0000 0000 0000 0000 000000
2017-04-09 03:41:14,0.49,9.90,0.00,20.80,24.12,28.20,14.72,49.40,1020.02,2036.99,1293.18,1459.73,1671.23,600.04,602.43,56.84,0000 0000 0000 0000 000000
2017-04-09 03:46:15,0.54,9.93,0.00,20.83,24.12,28.21,14.67,49.37,1020.03,2037.00,1289.78,1457.63,1668.83,599.88,602.32,56.89,0000 0000 0000 0000 000000
2017-04-09 03:51:17,0.33,9.95,0.00,20.82,24.12,28.21,14.71,49.39,1020.04,2037.00,1287.11,1456.02,1666.96,599.95,602.35,56.94,0000 0000 0000 0000 000000
2017-04-09 03:56:18,0.49,9.97,0.00,20.83,24.12,28.24,14.68,49.42,1020.04,2037.00,1284.69,1454.45,1665.21,600.01,602.49,56.99,0000 0000 0000 0000 000000
2017-04-09 04:01:19,0.72,10.00,0.00,20.86,24.12,28.24,14.71,49.38,1020.04,2037.00,1280.45,1451.80,1662.24,600.11,602.47,57.04,0000 0000 0000 0000 000000
2017-04-09 04:06:21,0.85,10.04,0.00,20.87,24.13,28.25,14.77,49.38,1020.13,2037.00,1275.48,1448.56,1658.67,600.27,602.72,57.09,0000 0000 0000 0000 000000
2017-04-09 04:11:22,1.00,10.09,0.00,20.89,24.14,28.26,14.70,49.40,1020.18,2037.00,1269.64,1444.80,1654.47,600.05,602.50,57.14,0000 0000 0000 0000 000000
2017-04-09 04:16:24,0.62,10.13,0.00,20.88,24.15,28.22,14.74,49.49,1020.26,2037.00,1265.48,1442.16,1651.44,600.35,602.76,57.19,0000 0000 0000 0000 000000
2017-04-09 04:21:25,0.83,10.16,0.00,20.89,24.16,28.25,14.73,49.48,1020.45,2037.00,1261.04,1439.25,1648.22,599.89,602.47,57.24,0000 0000 0000 0000 000000
2017-04-09 04:26:26,0.97,10.21,0.00,20.92,24.17,28.30,14.72,49.38,1020.16,2037.00,1255.40,1435.63,1644.11,600.22,602.53,57.29,0000 0000 0000 0000 000000
2017-04-09 04:31:28,0.74,10.26,0.93,20.95,24.17,28.31,14.74,49.51,1020.48,2037.00,1250.50,1432.30,1640.38,600.25,602.74,57.34,0000 0000 0000 0000 000000
2017-04-09 04:36:29,0.52,10.29,1.00,20.91,24.19,28.31,14.74,49.57,1020.51,2036.98,1247.74,1430.22,1638.04,600.19,602.75,57.39,0000 0000 0000 0000 000000
2017-04-09 04:41:30,0.80,10.32,1.00,20.91,24.20,28.30,14.70,49.55,1020.52,2036.99,1243.49,1427.33,1634.84,599.91,602.52,57.45,0000 0000 0000 0000 000000
2017-04-09 04:46:32,0.69,10.36,1.00,20.93,24.20,28.32,14.72,49.48,1020.52,2036.98,1239.42,1424.59,1631.73,600.10,602.56,57.50,0000 0000 0000 0000 000000
2017-04-09 04:51:33,0.44,10.39,1.00,20.87,24.22,28.34,14.72,49.67,1020.52,2036.97,1236.64,1422.57,1629.47,600.28,602.96,57.55,0000 0000 0000 0000 000000
2017-04-09 04:56:34,0.36,10.41,1.00,20.81,24.22,28.30,14.72,49.63,1020.52,2036.99,1234.70,1421.24,1627.85,599.80,602.61,57.60,0000 0000 0000 0000 000000
2017-04-09 05:01:36,0.60,10.43,1.00,20.79,24.22,28.23,14.75,49.66,1020.52,2036.98,1231.63,1419.05,1625.43,600.15,602.90,57.65,0000 0000 0000 0000 000000
2017-04-09 05:06:37,0.56,10.46,1.00,20.75,24.22,28.19,14.73,49.66,1020.57,2036.97,1228.41,1416.84,1622.96,599.85,602.86,57.70,0000 0000 0000 0000 000000
2017-04-09 05:11:38,0.43,10.49,1.00,20.68,24.22,28.05,14.81,49.73,1020.67,2036.96,1225.74,1415.17,1621.00,600.28,603.42,57.75,0000 0000 0000 0000 000000
2017-04-09 05:16:40,0.23,10.51,1.00,20.65,24.22,28.00,14.74,49.73,1020.88,2036.94,1224.01,1414.02,1619.67,599.83,603.21,57.80,0000 0000 0000 0000 000000
2017-04-09 05:21:41,0.19,10.52,1.00,20.64,24.20,27.87,14.76,49.73,1020.95,2036.98,1222.98,1413.33,1618.93,599.99,603.29,57.85,0000 0000 0000 0000 000000
2017-04-09 05:26:42,0.31,10.53,1.00,20.60,24.20,27.78,14.73,49.68,1020.90,2036.99,1221.48,1412.47,1617.79,600.05,603.59,57.90,0000 0000 0000 0000 000000
2017-04-09 05:31:43,0.46,10.55,0.03,20.52,24.19,27.78,14.67,49.86,1020.96,2036.99,1219.14,1410.74,1616.06,599.87,603.60,57.95,0000 0000 0000 0000 000000
2017-04-09 05:36:45,0.46,10.57,0.00,20.47,24.17,27.77,14.74,49.86,1021.00,2036.99,1216.44,1408.86,1613.85,600.19,603.90,58.00,0000 0000 0000 0000 000000
2017-04-09 05:41:46,0.41,10.59,0.00,20.42,24.15,27.77,14.78,49.72,1021.01,2036.99,1214.28,1407.39,1612.02,599.99,603.86,58.05,0000 0000 0000 0000 000000
2017-04-09 05:46:47,0.20,10.61,0.00,20.39,24.14,27.82,14.80,49.77,1021.01,2036.99,1212.93,1406.31,1611.00,600.12,604.03,58.10,0000 0000 0000 0000 000000
2017-04-09 05:51:48,0.45,10.62,0.00,20.31,24.11,27.76,14.73,49.73,1021.01,2037.00,1210.90,1405.13,1609.50,599.86,603.98,58.15,0000 0000 0000 0000 000000
2017-04-09 05:56:49,0.61,10.65,0.00,20.23,24.09,27.73,14.75,49.76,1021.01,2037.01,1207.58,1402.93,1606.97,599.67,604.00,58.20,0000 0000 0000 0000 000000
2017-04-09 06:01:51,0.42,10.68,0.00,20.17,24.06,27.71,14.76,49.74,1021.01,2037.06,1205.17,1401.42,1605.27,600.19,604.55,58.25,0000 0000 0000 0000 000000
2017-04-09 06:06:52,0.39,10.70,0.00,20.14,24.03,27.74,14.88,49.81,1021.01,2037.08,1202.95,1399.83,1603.62,600.27,604.80,58.30,0000 0000 0000 0000 000000
2017-04-09 06:11:53,0.25,10.72,0.00,20.07,24.00,27.65,14.81,49.77,1021.02,2037.26,1201.22,1399.00,1602.30,600.09,604.71,58.36,0000 0000 0000 0000 000000
2017-04-09 06:16:55,0.20,10.73,0.00,19.99,23.96,27.65,14.79,49.81,1021.02,2037.86,1200.79,1398.47,1602.00,600.01,604.78,58.41,0000 0000 0000 0000 000000
2017-04-09 06:21:56,0.12,10.74,0.00,19.93,23.92,27.64,14.85,49.83,1021.10,2037.98,1200.03,1398.02,1601.49,600.15,605.05,58.46,0000 0000 0000 0000 000000
2017-04-09 06:26:58,0.15,10.74,0.00,19.94,23.89,27.60,14.81,49.77,1021.24,2037.99,1199.32,1397.70,1600.87,600.28,605.35,58.51,0000 0000 0000 0000 000000
2017-04-09 06:31:59,0.66,10.77,0.00,19.95,23.85,27.48,14.77,49.76,1021.40,2038.00,1196.11,1395.56,1598.69,599.87,604.94,58.56,0000 0000 0000 0000 000000
2017-04-09 06:37:00,0.50,10.79,0.00,19.94,23.81,27.49,14.71,49.90,1021.44,2038.03,1193.30,1393.61,1596.57,599.72,604.96,58.61,0000 0000 0000 0000 000000
2017-04-09 06:42:02,0.35,10.82,0.00,19.85,23.77,27.41,14.79,49.91,1021.42,2038.17,1191.43,1392.34,1594.99,600.21,605.53,58.66,0000 0000 0000 0000 000000
2017-04-09 06:47:03,0.43,10.84,0.00,19.78,23.73,27.43,14.82,49.98,1021.43,2038.66,1189.65,1391.01,1593.65,599.67,605.07,58.71,0000 0000 0000 0000 000000
2017-04-09 06:52:04,0.48,10.86,0.00,19.75,23.69,27.38,14.85,49.96,1021.46,2038.91,1187.40,1389.44,1591.84,600.16,605.65,58.76,0000 0000 0000 0000 000000
2017-04-09 06:57:06,0.49,10.88,0.00,19.72,23.65,27.38,14.79,49.95,1021.49,2038.98,1184.87,1387.65,1589.76,599.89,605.45,58.81,0000 0000 0000 0000 000000
2017-04-09 07:02:07,0.21,10.90,0.00,19.66,23.60,27.25,14.76,49.89,1021.50,2038.99,1183.54,1386.75,1588.75,599.77,605.45,58.86,0000 0000 0000 0000 000000
2017-04-09 07:07:08,0.23,10.91,0.00,19.55,23.56,27.32,14.79,49.86,1021.50,2039.03,1182.22,1385.82,1587.74,599.98,605.91,58.91,0000 0000 0000 0000 000000
2017-04-09 07:12:09,0.56,10.93,0.00,19.54,23.52,27.30,14.80,49.91,1021.50,2039.33,1179.88,1384.18,1585.84,599.89,605.86,58.96,0000 0000 0000 0000 000000
2017-04-09 07:17:11,0.75,10.96,0.00,19.56,23.48,27.21,14.80,49.94,1021.50,2039.87,1176.81,1382.01,1583.48,599.81,605.76,59.01,0000 0000 0000 0000 000000
2017-04-09 07:22:12,0.59,11.00,0.00,19.56,23.44,27.08,14.85,50.02,1021.50,2039.98,1173.36,1379.60,1580.72,599.99,605.95,59.06,0000 0000 0000 0000 000000
2017-04-09 07:27:13,0.65,11.03,0.07,19.49,23.39,27.03,14.87,49.99,1021.50,2039.99,1170.14,1377.36,1578.21,600.16,606.22,59.11,0000 0000 0000 0000 000000
2017-04-09 07:32:14,0.79,11.08,1.00,19.48,23.36,27.02,14.79,49.91,1021.50,2039.99,1165.98,1374.35,1574.92,599.91,605.98,59.17,0000 0000 0000 0000 000000
2017-04-09 07:37:15,0.26,11.10,1.00,19.49,23.32,26.90,14.83,49.96,1021.50,2040.02,1164.06,1373.05,1573.62,600.20,606.26,59.22,0000 0000 0000 0000 000000
2017-04-09 07:42:16,0.54,11.11,1.00,19.50,23.28,26.87,14.81,49.96,1021.50,2040.15,1161.96,1371.63,1571.84,599.91,605.96,59.27,0000 0000 0000 0000 000000
2017-04-09 07:47:18,1.12,11.16,1.00,19.50,23.24,26.72,14.79,50.00,1021.50,2040.65,1157.17,1368.26,1568.05,599.97,606.01,59.32,0000 0000 0000 0000 000000
2017-04-09 07:52:19,0.77,11.21,1.00,19.48,23.21,26.71,14.86,50.03,1021.50,2040.95,1152.74,1365.23,1564.54,600.36,606.43,59.37,0000 0000 0000 0000 000000
2017-04-09 07:57:21,0.47,11.24,1.00,19.43,23.17,26.66,14.82,50.15,1021.50,2040.98,1150.43,1363.55,1562.74,600.13,606.24,59.42,0000 0000 0000 0000 000000
2017-04-09 08:02:22,0.52,11.26,1.00,19.33,23.13,26.63,14.84,50.08,1021.51,2040.99,1147.90,1361.77,1560.74,600.34,606.70,59.47,0000 0000 0000 0000 000000
2017-04-09 08:07:24,0.46,11.29,1.00,19.21,23.09,26.62,14.84,50.06,1021.51,2040.99,1145.37,1360.15,1558.85,600.21,606.78,59.52,0000 0000 0000 0000 000000
2017-04-09 08:12:25,0.61,11.32,1.00,19.17,23.05,26.62,14.88,50.02,1021.58,2041.02,1142.32,1358.09,1556.49,599.98,606.77,59.57,0000 0000 0000 0000 000000
2017-04-09 08:17:27,0.75,11.35,1.00,19.12,23.01,26.60,14.81,50.13,1021.80,2041.38,1139.00,1355.83,1553.90,600.22,607.18,59.62,0000 0000 0000 0000 000000
2017-04-09 08:22:28,0.42,11.38,1.00,19.02,22.96,26.59,14.85,50.08,1021.97,2041.91,1136.83,1354.48,1552.40,600.13,607.45,59.67,0000 0000 0000 0000 000000
2017-04-09 08:27:30,0.35,11.40,1.00,18.92,22.92,26.69,14.82,50.13,1021.99,2041.98,1135.01,1353.39,1551.03,599.72,607.28,59.72,0000 0000 0000 0000 000000
2017-04-09 08:32:31,0.37,11.42,1.00,18.88,22.87,26.63,14.87,50.17,1021.99,2041.99,1132.92,1352.03,1549.53,600.13,607.70,59.77,0000 0000 0000 0000 000000
2017-04-09 08:37:32,0.27,11.43,1.00,18.80,22.82,26.55,14.91,50.18,1021.99,2042.00,1131.46,1351.09,1548.48,600.11,607.87,59.82,0000 0000 0000 0000 000000
2017-04-09 08:42:33,0.10,11.44,1.00,18.77,22.77,26.51,14.80,50.07,1021.99,2042.22,1130.80,1350.94,1548.01,599.85,607.84,59.87,0000 0000 0000 0000 000000
2017-04-09 08:47:35,0.27,11.45,1.00,18.73,22.72,26.46,14.88,50.10,1021.99,2042.74,1130.01,1350.15,1547.59,600.12,608.06,59.92,0000 0000 0000 0000 000000
2017-04-09 08:52:36,0.13,11.46,1.00,18.74,22.68,26.41,14.88,50.00,1021.99,2042.98,1129.33,1350.00,1547.02,600.15,608.13,59.97,0000 0000 0000 0000 000000
2017-04-09 08:57:38,0.04,11.47,0.83,18.74,22.63,26.32,14.83,50.02,1022.00,2042.99,1128.93,1349.85,1546.92,599.70,607.57,60.02,0000 0000 0000 0000 000000
2017-04-09 09:02:39,0.27,1.53,0.00,18.76,22.64,26.22,13.09,43.13,1022.01,2048.19,3263.38,2890.87,3312.07,534.30,541.67,0.00,0000 0000 0000 0000 000000
2017-04-09 09:07:41,0.27,0.00,0.00,18.76,22.58,26.14,14.85,48.47,1022.01,2048.98,3585.38,3124.22,3580.40,599.70,607.57,0.05,0000 0000 0000 0000 000000
2017-04-09 09:12:42,0.26,0.01,0.00,18.73,22.52,26.09,14.82,48.22,1022.00,2048.99,3581.08,3121.00,3576.83,599.86,607.81,0.10,0000 0000 0000 0000 000000
2017-04-09 09:17:43,0.22,0.02,0.00,18.75,22.48,25.96,14.86,48.17,1022.01,2049.01,3578.70,3119.42,3574.99,600.21,608.20,0.15,0000 0000 0000 0000 000000
2017-04-09 09:22:44,0.17,0.02,0.00,18.79,22.44,25.89,14.86,48.10,1022.06,2049.05,3576.94,3118.40,3573.73,600.30,608.17,0.20,0000 0000 0000 0000 000000
2017-04-09 09:27:46,0.12,0.03,0.00,18.80,22.41,25.84,14.86,48.23,1022.25,2049.41,3575.36,3117.45,3572.62,600.20,608.13,0.25,0000 0000 0000 0000 000000
2017-04-09 09:32:47,0.11,0.03,0.00,18.85,22.38,25.82,14.87,48.22,1022.36,2049.90,3573.73,3116.56,3571.56,599.96,607.95,0.30,0000 0000 0000 0000 000000
2017-04-09 09:37:48,0.06,0.03,0.00,18.90,22.35,25.82,14.79,48.13,1022.31,2049.98,3572.27,3115.72,3570.49,600.15,607.94,0.35,0000 0000 0000 0000 000000
2017-04-09 09:42:50,0.06,0.04,0.00,18.93,22.32,25.82,14.76,48.04,1022.38,2049.99,3570.70,3114.78,3569.35,599.61,607.31,0.40,0000 0000 0000 0000 000000
2017-04-09 09:47:51,0.05,0.04,0.00,18.98,22.31,25.91,14.70,47.96,1022.45,2049.99,3569.27,3113.88,3568.33,599.81,607.58,0.45,0000 0000 0000 0000 000000
2017-04-09 09:52:52,0.07,0.04,0.00,19.01,22.29,26.04,14.84,48.08,1022.47,2049.99,3567.73,3112.86,3567.14,600.04,607.69,0.50,0000 0000 0000 0000 000000
2017-04-09 09:57:53,0.05,0.05,0.00,19.04,22.27,26.17,14.82,48.11,1022.48,2049.99,3566.15,3111.92,3565.94,600.00,607.60,0.56,0000 0000 0000 0000 000000
2017-04-09 10:02:55,0.07,0.05,0.00,19.07,22.27,26.20,14.79,48.03,1022.48,2050.00,3564.66,3110.99,3564.80,599.85,607.37,0.61,0000 0000 0000 0000 000000
2017-04-09 10:07:56,0.06,0.05,0.00,19.07,22.27,26.24,14.79,47.98,1022.51,2050.03,3563.22,3109.99,3563.69,599.92,607.43,0.66,0000 0000 0000 0000 000000
2017-04-09 10:12:57,0.07,0.06,0.00,19.08,22.27,26.28,14.77,47.98,1022.67,2050.01,3561.51,3108.90,3562.41,599.75,607.38,0.71,0000 0000 0000 0000 000000
2017-04-09 10:17:58,0.07,0.06,0.00,19.10,22.27,26.28,14.75,47.92,1022.92,2050.03,3559.87,3107.83,3561.11,599.78,607.57,0.76,0000 0000 0000 0000 000000
2017-04-09 10:22:59,0.06,0.06,0.00,19.12,22.27,26.33,14.76,47.98,1022.96,2050.03,3558.35,3106.87,3559.86,599.77,607.50,0.81,0000 0000 0000 0000 000000
2017-04-09 10:28:01,0.07,0.07,0.00,19.11,22.27,26.35,14.81,47.97,1022.96,2050.04,3556.78,3105.88,3558.66,600.04,607.93,0.86,0000 0000 0000 0000 000000
2017-04-09 10:33:02,0.06,0.07,0.00,19.15,22.27,26.34,14.80,47.94,1022.98,2050.01,3555.20,3104.77,3557.33,600.06,607.73,0.91,0000 0000 0000 0000 000000
2017-04-09 10:38:03,0.07,0.07,0.00,19.17,22.27,26.38,14.85,47.90,1023.02,2050.03,3553.60,3103.66,3556.05,600.00,607.70,0.96,0000 0000 0000 0000 000000
2017-04-09 10:43:04,0.07,0.08,0.00,19.20,22.28,26.39,14.80,47.92,1023.08,2050.05,3551.94,3102.61,3554.78,599.85,607.50,1.01,0000 0000 0000 0000 000000
2017-04-09 10:48:05,0.06,0.08,0.00,19.23,22.29,26.42,14.91,47.93,1023.29,2050.04,3550.28,3101.51,3553.50,600.15,607.77,1.06,0000 0000 0000 0000 000000
2017-04-09 10:53:07,0.07,0.09,0.00,19.24,22.29,26.41,14.85,48.08,1023.44,2050.03,3548.54,3100.33,3552.13,599.83,607.48,1.11,0000 0000 0000 0000 000000
2017-04-09 10:58:08,0.07,0.09,0.00,19.27,22.31,26.43,14.80,48.04,1023.45,2050.02,3546.84,3099.14,3550.69,599.79,607.49,1.16,0000 0000 0000 0000 000000
2017-04-09 11:03:09,0.06,0.09,0.00,19.28,22.32,26.45,14.83,48.02,1023.45,2050.01,3545.15,3097.98,3549.28,599.99,607.76,1.21,0000 0000 0000 0000 000000
2017-04-09 11:08:10,0.09,0.10,0.00,19.24,22.33,26.46,14.82,48.01,1023.45,2050.01,3543.49,3096.77,3547.82,599.93,607.70,1.26,0000 0000 0000 0000 000000
2017-04-09 11:13:11,0.08,0.10,0.00,19.23,22.34,26.50,14.82,48.09,1023.45,2050.00,3541.65,3095.53,3546.34,600.36,608.08,1.31,0000 0000 0000 0000 000000
2017-04-09 11:18:12,0.07,0.11,0.00,19.26,22.35,26.53,14.82,47.99,1023.46,2050.00,3539.90,3094.31,3544.89,600.00,607.73,1.36,0000 0000 0000 0000 000000
2017-04-09 11:23:14,0.06,0.11,0.00,19.27,22.37,26.53,14.81,47.92,1023.47,2050.00,3538.25,3093.15,3543.55,600.29,608.03,1.41,0000 0000 0000 0000 000000
2017-04-09 11:28:15,0.07,0.11,0.00,19.28,22.38,26.53,14.87,48.00,1023.51,2050.00,3536.63,3092.04,3542.28,600.06,607.77,1.46,0000 0000 0000 0000 000000
2017-04-09 11:33:16,0.08,0.12,0.00,19.32,22.39,26.55,14.89,48.06,1023.65,2050.00,3534.95,3090.85,3540.84,600.29,607.99,1.51,0000 0000 0000 0000 000000
2017-04-09 11:38:18,0.07,0.12,0.00,19.36,22.41,26.57,14.82,47.98,1023.85,2049.99,3533.22,3089.56,3539.37,599.83,607.57,1.56,0000 0000 0000 0000 000000
2017-04-09 11:43:19,0.08,0.12,0.00,19.41,22.42,26.60,14.74,47.93,1023.89,2049.98,3531.38,3088.33,3537.85,599.93,607.59,1.61,0000 0000 0000 0000 000000
2017-04-09 11:48:20,0.07,0.13,0.00,19.44,22.44,26.62,14.84,47.93,1023.91,2049.98,3529.55,3086.88,3536.17,599.82,607.44,1.66,0000 0000 0000 0000 000000
2017-04-09 11:53:22,0.07,0.13,0.00,19.45,22.45,26.60,14.84,47.97,1023.93,2049.96,3527.93,3085.80,3534.79,600.11,607.73,1.71,0000 0000 0000 0000 000000
2017-04-09 11:58:23,0.07,0.14,0.00,19.47,22.47,26.64,14.77,47.88,1023.94,2049.95,3526.30,3084.64,3533.48,600.10,607.68,1.76,0000 0000 0000 0000 000000
2017-04-09 12:03:24,0.07,0.14,0.00,19.48,22.49,26.62,14.83,47.92,1023.94,2049.87,3524.55,3083.38,3531.96,600.26,607.91,1.81,0000 0000 0000 0000 000000
2017-04-09 12:08:26,0.04,0.14,0.00,19.51,22.51,26.67,14.81,48.08,1023.94,2049.66,3522.82,3082.20,3530.60,600.05,607.56,1.86,0000 0000 0000 0000 000000
2017-04-09 12:13:27,0.07,0.15,0.00,19.57,22.53,26.65,14.90,47.96,1023.94,2049.41,3521.06,3080.94,3529.14,600.23,607.60,1.91,0000 0000 0000 0000 000000
2017-04-09 12:18:29,0.08,0.15,0.00,19.58,22.55,26.70,14.78,47.90,1023.94,2049.31,3518.90,3079.71,3527.59,600.37,607.76,1.96,0000 0000 0000 0000 000000
2017-04-09 12:23:30,0.06,0.15,0.00,19.59,22.58,26.73,14.80,47.98,1023.94,2049.17,3516.96,3078.39,3525.97,600.18,607.44,2.01,0000 0000 0000 0000 000000
2017-04-09 12:28:31,0.08,0.16,0.00,19.59,22.60,26.76,14.77,48.04,1023.95,2049.04,3515.17,3076.90,3524.40,600.14,607.39,2.06,0000 0000 0000 0000 000000
2017-04-09 12:33:32,0.08,0.16,0.00,19.59,22.62,26.79,14.82,48.02,1023.95,2049.01,3513.28,3075.56,3522.78,600.05,607.37,2.11,0000 0000 0000 0000 000000
2017-04-09 12:38:33,0.07,0.17,0.00,19.59,22.64,26.78,14.83,48.12,1023.99,2049.00,3511.57,3074.34,3521.37,600.18,607.58,2.16,0000 0000 0000 0000 000000
2017-04-09 12:43:35,0.08,0.17,0.00,19.59,22.67,26.83,14.82,47.98,1024.01,2049.00,3509.72,3072.97,3519.81,600.19,607.53,2.21,0000 0000 0000 0000 000000
2017-04-09 12:48:36,0.09,0.18,0.00,19.58,22.69,26.86,14.82,48.11,1024.04,2049.00,3507.61,3071.61,3518.11,599.90,607.25,2.26,0000 0000 0000 0000 000000
2017-04-09 12:53:37,0.07,0.18,0.00,19.59,22.71,26.92,14.80,48.03,1024.03,2048.99,3505.82,3070.74,3516.54,600.10,607.47,2.31,0000 0000 0000 0000 000000